THY6319 LTFM-LROP

Flight info

Callsign THY6319
Flight time 0h 44m
Altitude 30000
Route IBLAX1D/35L IBLAX P727 BGS L622 GONGO DCT KOMAN DCT OBUGA
Aircraft B77W/H-SDE1E2E3FGHIJ2J3J4J5M1RWXY/LB1D1

Departure

Time 2026-05-05 15:42
Airport İstanbul Airport (LTFM)

Arrival

Time 2026-05-05 16:26
Airport Bucharest Henri Coandă International Airport (LROP)
Time Latitude Longitude Altitude Speed Heading
2026-05-05 15:24 41.26400 28.73552 339 ft 0 kts 74°
2026-05-05 15:34 41.26431 28.73431 339 ft 0 kts 161°
2026-05-05 15:36 41.26396 28.73446 339 ft 13 kts 161°
2026-05-05 15:37 41.26308 28.73486 334 ft 13 kts 161°
2026-05-05 15:37 41.26240 28.73469 336 ft 10 kts 231°
2026-05-05 15:37 41.26221 28.73403 335 ft 5 kts 269°
2026-05-05 15:37 41.26220 28.73341 335 ft 12 kts 269°
2026-05-05 15:38 41.26219 28.73255 336 ft 8 kts 269°
2026-05-05 15:38 41.26218 28.73213 339 ft 5 kts 269°
2026-05-05 15:38 41.26217 28.73144 336 ft 11 kts 269°
2026-05-05 15:38 41.26216 28.73086 336 ft 7 kts 269°
2026-05-05 15:39 41.26216 28.73005 336 ft 7 kts 269°
2026-05-05 15:39 41.26214 28.72902 338 ft 17 kts 269°
2026-05-05 15:39 41.26212 28.72738 339 ft 18 kts 269°
2026-05-05 15:39 41.26210 28.72584 337 ft 12 kts 269°
2026-05-05 15:40 41.26231 28.72534 335 ft 6 kts 331°
2026-05-05 15:40 41.26273 28.72526 339 ft 6 kts 359°
2026-05-05 15:40 41.26278 28.72526 339 ft 0 kts 358°
2026-05-05 15:41 41.26279 28.72526 339 ft 0 kts 358°
2026-05-05 15:41 41.26329 28.72524 334 ft 37 kts 359°
2026-05-05 15:41 41.26986 28.72508 335 ft 149 kts 359°
2026-05-05 15:42 41.28238 28.72500 856 ft 192 kts
2026-05-05 15:42 41.29579 28.72505 2162 ft 192 kts 358°
2026-05-05 15:42 41.30919 28.72458 3490 ft 199 kts 357°
2026-05-05 15:42 41.32377 28.72387 4492 ft 225 kts 358°
2026-05-05 15:43 41.34052 28.72338 4988 ft 250 kts 358°
2026-05-05 15:43 41.35806 28.72295 4990 ft 251 kts 359°
2026-05-05 15:43 41.37533 28.72327 5313 ft 250 kts
2026-05-05 15:43 41.39243 28.72068 6467 ft 250 kts 340°
2026-05-05 15:44 41.40803 28.71059 7576 ft 252 kts 334°
2026-05-05 15:44 41.42356 28.69939 8763 ft 255 kts 333°
2026-05-05 15:44 41.43919 28.68795 9973 ft 258 kts 333°
2026-05-05 15:44 41.45521 28.67618 10834 ft 272 kts 333°
2026-05-05 15:45 41.47281 28.66329 11175 ft 306 kts 333°
2026-05-05 15:45 41.49242 28.64892 11577 ft 333 kts 333°
2026-05-05 15:45 41.51311 28.63371 12549 ft 344 kts 333°
2026-05-05 15:45 41.53422 28.61816 13688 ft 350 kts 333°
2026-05-05 15:46 41.55570 28.60234 14756 ft 355 kts 333°
2026-05-05 15:46 41.57759 28.58621 15759 ft 362 kts 333°
2026-05-05 15:46 41.59981 28.56985 16770 ft 368 kts 333°
2026-05-05 15:46 41.62248 28.55317 17792 ft 375 kts 333°
2026-05-05 15:47 41.64551 28.53621 18746 ft 382 kts 333°
2026-05-05 15:47 41.66101 28.52479 19294 ft 386 kts 333°
2026-05-05 15:47 41.69282 28.50132 20455 ft 395 kts 332°
2026-05-05 15:47 41.71722 28.48331 21176 ft 405 kts 332°
2026-05-05 15:48 41.73363 28.47118 21685 ft 410 kts 332°
2026-05-05 15:48 41.75875 28.45260 22562 ft 415 kts 332°
2026-05-05 15:48 41.79243 28.42766 23786 ft 418 kts 332°
2026-05-05 15:48 41.81806 28.40867 24497 ft 424 kts 332°
2026-05-05 15:49 41.84407 28.38938 25093 ft 431 kts 332°
2026-05-05 15:49 41.86189 28.37614 25501 ft 436 kts 332°
2026-05-05 15:49 41.88861 28.35630 26143 ft 441 kts 332°
2026-05-05 15:49 41.91544 28.33635 26973 ft 441 kts 332°
2026-05-05 15:50 41.94189 28.31664 27857 ft 440 kts 332°
2026-05-05 15:50 41.96751 28.29388 28623 ft 444 kts 323°
2026-05-05 15:50 41.99042 28.26594 29494 ft 445 kts 315°
2026-05-05 15:50 42.01059 28.23430 30079 ft 451 kts 307°
2026-05-05 15:51 42.02857 28.19956 30066 ft 452 kts 305°
2026-05-05 15:51 42.06283 28.12933 30068 ft 445 kts 304°
2026-05-05 15:52 42.09705 28.05987 30080 ft 446 kts 305°
2026-05-05 15:52 42.13128 27.99150 30084 ft 446 kts 305°
2026-05-05 15:53 42.16601 27.92223 30076 ft 446 kts 305°
2026-05-05 15:53 42.20071 27.85293 30078 ft 445 kts 307°
2026-05-05 15:54 42.24337 27.79332 30068 ft 441 kts 323°
2026-05-05 15:54 42.29538 27.75079 30060 ft 436 kts 333°
2026-05-05 15:55 42.34890 27.71273 30074 ft 434 kts 333°
2026-05-05 15:55 42.40221 27.67419 30070 ft 434 kts 333°
2026-05-05 15:56 42.45542 27.63513 30067 ft 435 kts 333°
2026-05-05 15:56 42.50821 27.59620 30048 ft 433 kts 333°
2026-05-05 15:57 42.56105 27.55721 30054 ft 432 kts 333°
2026-05-05 15:57 42.61238 27.51443 30052 ft 435 kts 326°
2026-05-05 15:58 42.66143 27.46598 30055 ft 437 kts 325°
2026-05-05 15:58 42.71023 27.41741 30045 ft 429 kts 326°
2026-05-05 15:59 42.75808 27.37011 30061 ft 424 kts 326°
2026-05-05 15:59 42.80600 27.32289 30038 ft 427 kts 325°
2026-05-05 16:00 42.85435 27.27517 30058 ft 430 kts 326°
2026-05-05 16:00 42.90252 27.22747 30039 ft 428 kts 326°
2026-05-05 16:01 42.95024 27.18013 30034 ft 421 kts 326°
2026-05-05 16:01 42.99774 27.13295 30037 ft 423 kts 326°
2026-05-05 16:02 43.04535 27.08555 30028 ft 424 kts 326°
2026-05-05 16:02 43.09317 27.03786 30026 ft 425 kts 326°
2026-05-05 16:03 43.14079 26.99277 30017 ft 423 kts 328°
2026-05-05 16:03 43.18963 26.94913 30015 ft 421 kts 329°
2026-05-05 16:04 43.23848 26.90528 30014 ft 419 kts 328°
2026-05-05 16:04 43.28705 26.86120 29996 ft 418 kts 328°
2026-05-05 16:05 43.33546 26.81700 30013 ft 418 kts 328°
2026-05-05 16:05 43.38022 26.77603 30016 ft 419 kts 328°
2026-05-05 16:06 43.40562 26.75275 30016 ft 419 kts 328°
2026-05-05 16:07 43.45423 26.70813 30013 ft 421 kts 328°
2026-05-05 16:07 43.50296 26.66332 30013 ft 421 kts 328°
2026-05-05 16:07 43.52706 26.64114 29901 ft 413 kts 329°
2026-05-05 16:08 43.55189 26.62232 29576 ft 403 kts 338°
2026-05-05 16:08 43.57803 26.60930 29136 ft 396 kts 345°
2026-05-05 16:08 43.60463 26.60034 28599 ft 392 kts 351°
2026-05-05 16:08 43.63154 26.59492 28023 ft 390 kts 353°
2026-05-05 16:09 43.65833 26.58995 27478 ft 388 kts 353°
2026-05-05 16:09 43.68495 26.58507 26966 ft 380 kts 353°
2026-05-05 16:09 43.71063 26.58033 26046 ft 367 kts 353°
2026-05-05 16:09 43.73580 26.57562 24894 ft 364 kts 353°
2026-05-05 16:10 43.76082 26.57089 23703 ft 362 kts 353°
2026-05-05 16:10 43.78569 26.56615 22406 ft 359 kts 353°
2026-05-05 16:10 43.81004 26.56148 21755 ft 346 kts 353°
2026-05-05 16:10 43.83386 26.55689 21308 ft 344 kts 353°
2026-05-05 16:11 43.85753 26.55233 20879 ft 342 kts 353°
2026-05-05 16:11 43.92733 26.53886 19612 ft 337 kts 354°
2026-05-05 16:12 43.95047 26.53438 19188 ft 335 kts 354°
2026-05-05 16:12 43.99651 26.52546 18343 ft 333 kts 354°
2026-05-05 16:13 44.06506 26.51215 16958 ft 329 kts 354°
2026-05-05 16:13 44.08760 26.50776 16530 ft 326 kts 354°
2026-05-05 16:13 44.11005 26.50339 16121 ft 324 kts 354°
2026-05-05 16:14 44.15445 26.49474 15273 ft 320 kts 354°
2026-05-05 16:14 44.19810 26.48622 14455 ft 317 kts 354°
2026-05-05 16:15 44.24165 26.47771 13591 ft 315 kts 354°
2026-05-05 16:15 44.28509 26.46922 12624 ft 313 kts 354°
2026-05-05 16:16 44.32788 26.46083 11807 ft 308 kts 354°
2026-05-05 16:16 44.36985 26.45258 10874 ft 295 kts 354°
2026-05-05 16:17 44.40950 26.44492 9481 ft 286 kts 356°
2026-05-05 16:17 44.42920 26.44809 8730 ft 287 kts 20°
2026-05-05 16:18 44.45839 26.48437 7358 ft 290 kts 58°
2026-05-05 16:18 44.46505 26.51133 6682 ft 299 kts 78°
2026-05-05 16:18 44.47443 26.56638 5280 ft 294 kts 50°
2026-05-05 16:19 44.49029 26.58443 4667 ft 298 kts 24°
2026-05-05 16:19 44.50995 26.59175 4573 ft 292 kts
2026-05-05 16:19 44.54974 26.57474 4532 ft 311 kts 323°
2026-05-05 16:20 44.57013 26.52497 3707 ft 290 kts 291°
2026-05-05 16:20 44.58408 26.47478 3462 ft 254 kts 291°
2026-05-05 16:21 44.59628 26.43226 3244 ft 223 kts 291°
2026-05-05 16:22 44.59808 26.36960 3239 ft 219 kts 264°
2026-05-05 16:22 44.59516 26.33000 3146 ft 196 kts 263°
2026-05-05 16:23 44.59250 26.29477 2647 ft 164 kts 263°
2026-05-05 16:23 44.59135 26.27948 2395 ft 149 kts 263°
2026-05-05 16:23 44.58924 26.25140 2045 ft 146 kts 262°
2026-05-05 16:24 44.58817 26.23746 1835 ft 141 kts 263°
2026-05-05 16:24 44.58714 26.22372 1650 ft 142 kts 263°
2026-05-05 16:24 44.58506 26.19610 1260 ft 143 kts 263°
2026-05-05 16:25 44.58404 26.18232 1082 ft 142 kts 261°
2026-05-05 16:25 44.58201 26.15540 730 ft 137 kts 263°
2026-05-05 16:25 44.58101 26.14206 568 ft 138 kts 262°
2026-05-05 16:26 44.57905 26.11619 327 ft 119 kts 264°
2026-05-05 16:26 44.57790 26.10181 326 ft 27 kts 255°
2026-05-05 16:27 44.57719 26.09964 323 ft 21 kts 238°
2026-05-05 16:27 44.57677 26.09881 324 ft 1 kts 233°
2026-05-05 16:27 44.57671 26.09870 324 ft 0 kts 233°
2026-05-05 16:27 44.57665 26.09858 321 ft 3 kts 233°
2026-05-05 16:28 44.57632 26.09796 322 ft 15 kts 234°
2026-05-05 16:28 44.57580 26.09607 322 ft 23 kts 261°
2026-05-05 16:28 44.57562 26.09384 324 ft 23 kts 264°
2026-05-05 16:28 44.57546 26.09161 324 ft 23 kts 264°
2026-05-05 16:29 44.57532 26.08937 325 ft 23 kts 265°
2026-05-05 16:29 44.57512 26.08715 323 ft 23 kts 264°
2026-05-05 16:29 44.57488 26.08522 322 ft 18 kts 239°
2026-05-05 16:29 44.57374 26.08485 322 ft 18 kts 175°
2026-05-05 16:30 44.57251 26.08499 325 ft 18 kts 173°
2026-05-05 16:30 44.57128 26.08520 324 ft 18 kts 173°
2026-05-05 16:30 44.57005 26.08538 322 ft 18 kts 175°
2026-05-05 16:30 44.56910 26.08511 323 ft 11 kts 238°
2026-05-05 16:31 44.56924 26.08413 322 ft 14 kts 329°
2026-05-05 16:31 44.57011 26.08307 323 ft 13 kts 309°
2026-05-05 16:31 44.57033 26.08269 323 ft 0 kts 309°